Regional Weather Roundup
Issued by NWS

Home | Current Version | Previous Version | Text Only | Print | Product List | Glossary Off
Versions: 1 2 3 4 5 6 7 8 9 10 11 12 13 14 15 16 17 18 19 20 21 22 23 24 25 26 27 28 29 30 31 32 33 34 35 36 37 38 39 40 41 42 43 44 45 46 47 48 49 50

000
ASUS43 KMKX 031111
RWRWI

WISCONSIN REGIONAL WEATHER ROUNDUP
NATIONAL WEATHER SERVICE MILWAUKEE/SULLIVAN WI
500 AM CST SAT DEC 03 2016

NOTE: "FAIR" INDICATES FEW OR NO CLOUDS BELOW 12,000 FEET WITH NO
SIGNIFICANT WEATHER AND/OR OBSTRUCTIONS TO VISIBILITY.

WIZ001-002-006>008-014>016-023>028-031200-
NORTHWEST WISCONSIN

CITY           SKY/WX    TMP DP  RH WIND       PRES   REMARKS
SUPERIOR ARPT  NOT AVBL
ASHLAND        CLOUDY    30  25  81 SW6       30.27S WCI  24
HAYWARD        CLOUDY    29  24  82 CALM      30.26
SIREN          NOT AVBL
CUMBERLAND     CLOUDY    28  25  86 W3        30.27R
RICE LAKE      CLOUDY    29  25  84 CALM      30.29S
CHETEK         CLOUDY    29  25  85 CALM      30.28S
LADYSMITH      CLOUDY    29  27  92 SW3       30.28S
EAU CLAIRE     CLOUDY    30  25  81 SW8       30.29R WCI  22
MENOMONIE      CLOUDY    31  26  82 SW6       30.31R WCI  25
NEW RICHMOND   CLOUDY    29  25  84 SW3       30.30R
OSCEOLA        CLOUDY    30  27  88 W3        30.33R
$$

WIZ003>005-009-010-017-018-031200-
NORTH CENTRAL WISCONSIN

CITY           SKY/WX    TMP DP  RH WIND       PRES   REMARKS
MANITOWISH WTR CLOUDY    26  26 100 SW3       30.22S
ARBOR VITAE    CLOUDY    27  25  91 SW3       30.23R
WOODRUFF       CLOUDY    27  25  91 SW3       30.23R
RHINELANDER    CLOUDY    27  24  89 W6        30.23S WCI  20
EAGLE RIVER    CLOUDY    28  27  99 CALM      30.22S
LAND O LAKES   NOT AVBL
PHILLIPS       CLOUDY    26  25  99 SW3       30.24S
TOMAHAWK       CLOUDY    26  21  83 CALM      30.25S
MEDFORD        CLOUDY    27  23  83 NW3       30.25R
MERRILL        CLOUDY    27  23  83 W7        30.27S WCI  20
$$

WIZ029-030-035-036-043>047-031200-
CENTRAL WISCONSIN

CITY           SKY/WX    TMP DP  RH WIND       PRES   REMARKS
WAUSAU         CLOUDY    28  22  78 W7        30.27R WCI  21
MOSINEE        CLOUDY    28  27  93 SW5       30.28R WCI  23
MARSHFIELD     CLOUDY    29  22  75 W5        30.26R WCI  24
STEVENS POINT  CLOUDY    28  22  77 NW5       30.29R WCI  23
WAUPACA        CLOUDY    32  25  74 CALM      30.30R
WAUTOMA        NOT AVBL
WISC RAPIDS    CLOUDY    30  23  75 W5        30.30R WCI  25
CAMP DOUGLAS   CLOUDY    31  22  69 SW5       30.31R WCI  26
$$

WIZ011>013-019>022-031-037>040-048>050-031200-
NORTHEAST WISCONSIN

CITY           SKY/WX    TMP DP  RH WIND       PRES   REMARKS
ANTIGO         NOT AVBL
SHAWANO        CLOUDY    33  26  75 W3        30.28S
OCONTO         NOT AVBL
STURGEON BAY   NOT AVBL
GREEN BAY      CLOUDY    34  28  79 W6        30.28  WCI  29
MANITOWOC      CLOUDY    33  27  78 MISG      30.29S
APPLETON       NOT AVBL
CLINTONVILLE   CLOUDY    32  23  69 W7        30.29R WCI  26
OSHKOSH        CLOUDY    31  23  72 W7        30.29R WCI  24
$$

WIZ032>034-041-042-053>061-031200-
SOUTHWEST WISCONSIN

CITY           SKY/WX    TMP DP  RH WIND       PRES   REMARKS
LA CROSSE      CLOUDY    32  22  66 W7        30.34  WCI  26
SPARTA         NOT AVBL
VIROQUA        CLOUDY    28  23  82 W6        30.31R WCI  21
BOSCOBEL       CLOUDY    32  22  66 W5        30.36R WCI  27
PRAIRIE DU CHI CLOUDY    31  22  69 W9        30.36R WCI  23
PLATTEVILLE    CLOUDY    30  25  81 W9        30.34R WCI  22
$$

WIZ056-057-062-063-064-067-068-031200-
SOUTH CENTRAL WISCONSIN

CITY           SKY/WX    TMP DP  RH WIND       PRES   REMARKS
REEDSBURG      CLOUDY    30  22  72 W6        30.32R WCI  24
BARABOO/DELLS  CLOUDY    30  22  70 W5        30.31R WCI  25
LONE ROCK      CLOUDY    31  21  66 W9        30.35R WCI  23
MINERAL POINT  NOT AVBL
MADISON        CLOUDY    30  22  72 NW6       30.32S WCI  24
MIDDLETON      NOT AVBL
WATERTOWN      NOT AVBL
MONROE         CLOUDY    30  23  74 W8        30.32R WCI  23
JANESVILLE     CLOUDY    32  27  80 W6        30.33S WCI  26
$$

WIZ051-052-058>065-066-070>072-031200-
SOUTHEAST WISCONSIN

CITY           SKY/WX    TMP DP  RH WIND       PRES   REMARKS
MILWAUKEE      CLOUDY    33  22  63 W7        30.32R WCI  27
WAUKESHA       CLOUDY    30  23  74 W5        30.32S WCI  25
MILWAUKEE/TIMM CLOUDY    32  21  64 W9        30.33R WCI  24
RACINE         CLOUDY    32  23  69 W6        30.34R WCI  26
BURLINGTON     NOT AVBL
KENOSHA        CLOUDY    31  24  75 W7        30.33R WCI  24
FOND DU LAC    CLOUDY    31  22  69 NW7       30.30S WCI  24
SHEBOYGAN      CLOUDY    31  24  75 W8        30.29S WCI  23
WEST BEND      NOT AVBL
JUNEAU         CLOUDY    30  23  76 W7        30.32R WCI  23
$$

LSZ147-162-031200-
LAKE SUPERIOR

STATION/POSITION TIME  TEMP    WIND        PRES    WAVE
                       AIR SEA DIR/SP/G            HT/PER
                 (UTC) (F)     (DEG/KT/KT) (MB)    (FT/S)
DEVILS ISLAND    1100   32     310/  6/  8 1025.3F
PORT WING        1030   31     210/  7/  9 1025.1R
SAXON HARBOR     1040   30     200/  6/  8 1024.4F
$$

LMZ867-665-643>646-031200-
LAKE MICHIGAN

STATION/POSITION TIME  TEMP    WIND        PRES    WAVE
                       AIR SEA DIR/SP/G            HT/PER
                 (UTC) (F)     (DEG/KT/KT) (MB)    (FT/S)
CHAMBERS ISLAND  1040   35     280/  5/ 10 1024.0S
NORTHPORT PIER   1040   37     300/  9/ 12 1024.0S
SISTER BAY       1023   36     340/ 14/ 15   N/A
ALGOMA LAKESHORE 1051          270/  2/  5   N/A
KEWAUNEE LAKESHO 1048   33     280/  7/ 10 1024.5R
SHEBOYGAN LAKESH 1100   32     250/ 10/ 12 1026.3R
PORT WASHINGTON  1030   32     280/  4/  8 1027.4R
MILWAUKEE LAKESH 1050   32     280/  6/ 10   N/A
S MID LAKE BUOY  1050   35 49  300/  6/ 12 1027.0R   2/ 5
KENOSHA   LAKESH 1100   33     280/  5/  9 1027.1
$$

TC  - TEMPERATURE IN CELSIUS
VSB - VISIBILITY IN STATUTE MILES
WCI - WIND CHILL INDEX
HX  - HEAT INDEX





USA.gov is the U.S. government's official web portal to all federal, state and local government web resources and services.